Wind_Speed
40 39 40 40 40 40 41 41 41 41 41 40 40 40 40 39 38 39 39 39 39 38 38 39 39 40 41 42 42 43 43 45 46 47 48 48 48 47 45 43 40 38 35 34 34 35 36 37 39 42 44 45 45 46 46 45 44 43 41 39 36 35 37 37 37 37 38 37 36 35 34 32 32 34 34 34 34 33 32 32 33 33 35 36 36
42 42 42 42 42 43 43 44 44 44 44 43 43 43 43 43 42 42 42 41 42 41 41 41 42 42 43 43 44 44 45 46 48 48 48 48 48 46 43 41 39 36 34 33 33 34 36 37 39 42 43 43 44 45 44 43 42 40 38 35 32 32 34 35 35 34 33 32 32 30 29 28 29 31 32 32 32 32 32 32 33 34 35 35 36
44 44 44 45 45 46 46 46 46 46 46 46 46 46 46 46 46 45 44 44 44 43 43 44 44 45 45 45 46 46 47 48 49 49 49 49 47 45 42 40 38 34 33 33 33 34 36 37 39 41 42 42 42 43 42 41 39 37 34 31 30 31 32 33 32 30 29 28 27 26 25 25 27 28 29 30 30 31 32 32 33 34 34 35 37
47 47 47 48 48 48 48 48 48 48 48 48 48 49 49 49 48 47 46 46 46 46 46 46 46 46 47 47 48 48 49 50 50 51 50 49 47 44 41 39 36 33 32 33 33 35 36 37 39 40 40 41 41 41 40 39 37 33 31 30 30 30 31 31 30 28 27 26 24 23 23 24 25 27 28 29 30 31 32 33 33 34 35 37 38
51 50 50 51 51 51 51 51 50 50 50 50 50 51 51 51 50 50 49 49 49 49 49 49 49 49 49 49 49 50 51 51 51 52 51 50 47 43 40 39 35 33 32 33 34 35 36 37 38 39 39 39 39 38 38 37 34 31 29 29 29 29 29 29 28 27 25 24 23 22 22 23 24 26 28 30 30 32 33 34 35 36 37 39 39
55 54 54 53 53 52 53 53 52 52 52 52 52 52 52 52 52 52 52 52 52 52 51 51 51 51 51 51 51 51 52 52 53 52 52 50 46 42 41 39 35 33 33 34 35 35 36 37 38 38 38 37 36 35 34 33 31 29 28 28 28 27 27 26 25 24 23 22 22 23 23 24 25 27 29 30 31 33 35 36 37 38 39 41 41
58 58 57 56 56 55 55 54 54 54 54 53 53 53 54 54 54 54 55 54 54 54 54 54 53 53 54 53 53 53 53 54 54 53 52 49 44 41 41 39 36 34 35 36 36 36 36 36 37 37 37 35 33 31 30 29 28 27 26 26 25 24 23 23 23 23 23 23 23 24 25 26 27 29 31 32 33 35 38 39 40 41 42 43 44
61 60 59 58 58 57 57 56 56 55 55 55 54 54 55 55 55 56 56 56 56 56 56 56 56 56 56 55 55 54 54 55 55 54 52 49 44 42 42 40 37 36 36 37 37 37 36 36 36 36 35 32 30 28 27 27 26 25 25 24 23 22 22 22 23 24 24 24 25 26 27 28 30 32 33 34 36 38 41 42 43 44 45 45 46
65 64 62 61 61 60 59 58 57 57 57 56 56 56 56 56 56 57 58 58 58 59 59 59 59 58 57 57 57 56 56 56 56 55 52 48 44 42 43 42 39 37 38 38 38 38 36 36 36 35 33 30 28 27 26 25 24 23 23 22 21 22 23 24 25 25 26 27 28 29 30 32 34 35 37 38 40 42 43 44 44 45 46 47 47
70 68 67 66 65 63 62 62 61 60 60 59 59 58 58 58 58 58 59 60 60 60 61 61 61 60 59 59 59 58 57 56 56 55 52 48 45 43 45 44 41 39 39 39 39 38 37 36 35 33 30 28 27 26 26 24 23 21 21 21 22 23 25 26 27 28 29 30 31 32 34 36 37 38 39 40 42 43 44 45 45 46 47 48 49
70 70 69 69 69 67 66 66 65 64 64 64 63 62 61 61 61 61 61 61 62 62 62 62 62 61 61 61 60 59 58 57 56 55 53 49 46 45 46 46 43 41 40 40 40 39 37 36 35 32 30 28 27 27 26 25 24 22 21 22 23 25 27 29 30 31 32 33 34 36 38 39 40 40 41 42 44 44 44 45 46 47 48 49 50
67 67 67 68 68 68 69 69 69 68 68 67 66 65 65 64 64 64 63 63 64 64 63 63 63 63 62 62 61 60 59 58 56 55 53 51 48 46 46 47 46 43 41 41 40 39 38 37 35 32 31 29 29 29 28 27 26 24 23 24 25 27 30 32 34 35 36 37 38 39 40 41 42 43 44 44 45 45 46 46 47 48 49 50 51
68 68 68 68 67 67 69 71 72 71 71 70 69 68 67 67 66 66 66 65 65 65 65 64 64 63 63 63 62 61 59 58 56 55 54 52 50 47 47 49 49 45 43 42 41 39 39 38 36 34 32 31 31 31 31 30 29 28 27 27 28 29 31 34 36 38 39 40 40 41 42 43 44 45 46 46 46 47 47 47 48 49 50 51 52
67 68 68 69 69 69 70 71 73 73 72 72 71 70 70 69 68 68 67 67 67 66 66 65 64 64 64 63 63 62 60 58 57 56 55 53 51 49 48 50 50 47 44 43 42 41 40 39 37 36 34 33 34 34 34 34 32 31 31 31 31 32 34 36 38 40 41 41 42 43 44 45 46 47 47 47 47 47 48 48 49 50 51 52 52
64 65 67 68 69 70 70 71 73 73 73 72 72 71 71 70 69 69 69 68 68 67 66 65 65 65 65 65 64 62 60 59 57 57 56 54 52 50 49 50 51 49 46 44 43 43 42 41 39 38 37 36 37 37 38 38 36 35 35 35 35 35 36 38 40 42 42 42 43 44 45 46 47 47 47 47 47 47 48 49 50 51 52 52 53
62 64 65 67 68 68 69 70 71 72 72 72 71 71 71 71 71 71 70 69 69 68 67 67 67 67 67 66 65 63 61 59 58 57 57 55 53 51 50 51 52 50 47 45 45 45 44 43 42 40 39 39 40 40 41 41 41 40 39 39 38 38 38 39 41 42 43 43 44 45 46 47 46 46 46 47 48 48 49 49 50 51 52 53 53
61 63 64 64 65 65 67 68 69 70 71 70 70 70 71 71 72 72 71 71 70 70 69 69 69 68 68 67 66 64 62 61 59 58 57 55 53 52 51 52 53 51 48 47 47 46 46 45 45 44 43 42 43 43 44 45 44 43 43 42 41 40 40 40 42 42 43 44 45 46 46 46 47 47 47 48 49 49 50 50 51 52 53 53 54
62 62 63 62 62 63 64 66 67 67 68 68 68 69 69 70 70 70 70 70 69 69 69 69 69 69 69 69 68 66 64 62 61 59 57 55 54 53 53 52 53 52 49 48 49 48 47 47 47 46 46 45 46 46 47 48 48 47 46 45 44 42 42 42 42 43 45 46 46 46 46 47 48 48 48 49 50 50 50 51 52 53 54 54 54
64 64 64 63 63 63 63 64 64 65 65 66 66 67 68 68 68 68 68 67 67 67 67 68 69 70 71 71 70 68 66 63 61 59 57 56 54 54 54 53 53 53 51 50 50 50 49 48 49 48 48 48 47 48 49 50 51 50 49 48 47 45 45 44 44 44 45 46 46 47 47 48 48 49 49 50 50 51 51 52 53 54 54 55 55
65 66 65 64 64 64 64 64 64 64 65 65 66 66 66 67 67 67 67 67 67 67 68 69 71 72 72 71 69 67 64 62 60 58 57 56 54 54 54 53 54 54 52 51 52 52 50 49 49 50 50 50 49 48 48 50 52 53 53 52 50 49 48 47 46 46 46 46 46 47 48 48 49 49 50 51 51 51 52 53 54 54 55 55 55
64 65 65 65 65 65 65 66 66 66 66 66 67 66 66 67 68 68 68 68 69 70 71 71 71 70 70 69 67 65 62 60 59 58 58 56 54 54 53 53 54 55 54 52 52 52 52 50 50 50 51 51 51 49 49 50 51 53 53 52 52 51 51 49 48 47 47 47 47 48 48 49 50 50 51 51 51 52 53 54 54 55 55 55 54
64 64 64 64 65 65 65 66 66 67 67 67 67 67 68 68 69 69 70 70 71 71 71 70 68 67 67 66 65 63 61 58 58 58 57 56 54 54 53 53 55 55 54 53 53 53 53 52 51 51 51 52 51 50 50 50 50 51 52 52 53 53 52 50 49 49 48 48 48 48 49 49 50 50 51 52 53 53 54 54 54 54 54 54 54
64 63 63 62 62 63 64 65 64 64 64 64 64 65 65 67 67 68 69 69 68 68 67 67 65 64 64 64 63 62 60 58 58 58 57 56 55 55 54 54 55 56 55 54 54 53 53 52 52 52 51 52 51 50 50 50 50 51 52 52 53 53 52 52 51 50 50 50 49 49 50 50 50 51 52 53 54 54 54 54 54 54 54 54 54
65 64 63 62 60 60 61 62 61 61 60 61 61 60 60 61 62 63 64 64 64 64 64 65 65 64 63 63 62 61 60 59 58 57 57 56 56 55 55 55 56 56 56 55 54 53 52 53 52 51 52 52 51 50 49 49 50 51 52 52 53 53 53 53 52 52 51 51 51 50 50 50 51 52 53 54 54 54 54 55 55 55 55 54 54
68 66 65 64 62 61 60 60 59 59 59 59 58 58 57 57 58 59 60 60 61 62 63 65 65 64 62 61 61 61 60 59 59 58 57 57 57 57 56 55 56 57 57 56 54 53 53 52 52 52 52 51 50 50 49 50 50 52 52 52 53 54 54 54 53 52 52 52 52 52 51 51 52 53 54 54 54 54 55 55 55 55 55 54 53
70 68 66 65 64 62 61 60 59 58 58 58 58 58 57 57 57 58 58 58 59 60 63 64 64 63 61 60 60 60 60 60 59 58 57 57 57 57 56 56 57 58 58 56 55 54 53 53 53 52 51 50 49 50 50 50 51 52 53 54 54 54 54 54 53 53 53 53 52 52 52 52 53 54 54 55 55 55 55 55 55 55 55 53 52
68 67 66 65 64 62 61 60 59 58 57 57 57 56 56 56 57 57 56 56 57 59 62 64 64 63 61 59 59 60 60 60 60 59 58 57 58 58 57 58 59 59 58 57 56 55 54 54 53 51 50 49 50 51 51 51 52 53 54 55 55 55 55 54 54 54 54 53 53 52 53 53 54 54 55 55 55 56 56 56 55 55 54 53 52
67 65 65 64 63 61 60 59 58 57 56 56 55 55 54 55 55 55 55 56 57 60 62 63 64 63 62 59 59 59 59 59 59 59 58 58 58 59 59 60 60 60 59 58 57 55 55 54 52 51 50 50 51 51 51 52 53 54 55 55 55 55 55 55 55 55 54 54 54 54 54 54 54 55 55 56 56 56 56 56 56 55 54 53 53
70 65 64 63 62 61 61 60 59 58 57 56 55 54 54 54 55 55 55 57 59 61 62 63 63 63 62 60 58 58 58 58 59 59 58 59 59 60 61 61 61 60 59 58 57 56 56 54 52 51 51 51 52 52 52 53 54 55 56 56 56 56 56 56 56 56 55 55 55 55 55 55 55 55 56 56 57 57 56 56 55 54 54 54 54
76 70 66 64 63 62 61 61 61 60 58 57 56 55 53 53 54 55 57 59 61 62 63 63 64 64 63 61 58 58 58 58 58 58 58 59 60 60 61 61 61 59 59 59 58 57 56 54 53 52 52 53 53 53 53 54 55 56 57 57 57 57 58 57 57 56 56 56 55 55 55 55 55 55 56 57 57 57 56 56 55 55 54 55 56
76 75 72 68 67 65 64 63 62 62 60 58 56 55 54 53 54 56 59 61 63 64 64 65 66 66 64 61 59 58 58 58 58 57 57 58 59 60 61 61 61 60 60 60 59 58 56 55 54 54 54 54 54 54 55 56 57 58 58 58 59 59 59 58 58 57 56 56 56 56 55 55 55 56 57 58 58 58 57 56 55 55 55 56 56
69 73 74 72 70 68 67 65 64 63 61 58 57 55 55 54 54 57 61 64 66 66 66 67 67 67 64 62 60 59 58 58 58 57 57 58 60 61 62 62 62 62 62 61 60 58 57 56 56 56 56 56 56 56 57 58 58 59 59 60 60 60 59 59 58 57 57 57 56 56 56 55 56 57 58 59 59 58 58 57 56 56 56 56 57
62 65 69 72 71 70 69 67 66 65 63 60 58 56 56 55 55 56 59 63 66 67 68 68 68 66 64 62 61 59 58 57 57 58 58 59 60 61 62 62 63 63 63 62 61 59 58 58 58 58 57 57 57 58 59 59 60 60 60 61 61 61 60 59 58 58 57 57 57 56 56 56 56 57 58 58 58 58 58 57 56 56 56 56 56
64 62 63 66 69 70 69 68 68 67 66 63 61 59 58 57 56 56 57 59 62 64 66 68 68 66 64 63 61 60 58 58 58 58 59 59 60 61 62 63 64 64 64 62 61 60 60 60 60 59 59 59 59 60 60 60 60 61 62 62 62 61 60 60 59 58 58 58 57 56 56 57 57 57 57 58 58 58 58 57 56 57 57 57 57
71 67 64 64 66 68 69 69 68 67 66 65 64 63 62 59 58 58 57 57 58 60 62 64 67 66 65 64 62 61 59 59 58 59 59 60 61 62 64 65 65 64 63 62 62 62 62 62 61 61 61 61 61 61 61 61 62 63 63 63 63 62 61 60 60 59 59 58 57 57 57 57 57 57 58 58 58 58 58 58 58 58 57 57 58
80 75 70 67 67 68 69 69 68 67 66 65 64 65 66 64 61 60 59 59 58 58 59 61 65 66 65 65 64 62 61 60 59 59 61 62 63 64 65 65 65 64 63 63 63 64 64 63 63 62 62 62 62 62 62 62 63 64 64 64 63 62 62 61 60 60 59 58 58 58 58 58 58 58 58 57 58 59 59 59 59 58 58 58 59
87 83 77 73 71 71 71 71 70 69 68 66 64 65 67 67 66 64 62 61 61 59 58 60 63 65 66 65 65 64 63 61 61 61 63 64 65 66 65 65 65 64 64 64 64 65 65 64 64 63 63 63 63 63 63 64 65 65 65 64 63 62 62 61 61 60 59 58 59 59 59 58 58 59 58 58 58 60 60 60 59 58 58 59 61
89 89 86 82 78 75 74 74 74 73 71 70 68 67 67 68 67 66 65 65 64 63 61 61 62 65 66 67 67 66 65 64 64 64 65 66 66 66 65 65 64 64 64 65 66 66 66 66 65 65 65 64 64 64 65 65 66 66 65 64 63 63 62 62 62 60 59 59 60 60 60 60 60 59 59 58 59 61 61 61 60 60 60 61 63
89 91 91 90 86 83 80 78 77 77 76 74 73 71 70 70 69 68 67 66 65 64 64 63 64 65 67 69 70 69 68 67 66 64 65 66 66 66 66 66 65 65 65 66 67 67 67 66 66 66 66 66 66 66 66 67 67 66 65 65 64 64 63 63 62 60 60 60 61 61 61 61 60 60 59 60 61 62 62 62 62 62 62 64 65
87 90 92 92 91 90 87 85 82 81 80 80 78 76 74 73 72 71 69 67 66 65 65 64 65 66 68 69 70 70 70 69 67 66 66 67 68 68 67 66 66 65 66 67 68 68 68 67 67 68 68 68 68 68 68 68 68 67 66 66 65 65 65 64 62 61 61 62 62 62 62 61 61 60 60 61 62 63 64 64 64 64 65 66 67
84 87 89 90 91 92 92 91 89 85 83 83 84 82 79 76 75 74 72 70 68 67 66 66 66 67 69 70 70 71 70 70 69 69 69 70 69 69 68 67 67 67 67 68 69 69 69 69 69 69 69 69 69 69 69 69 69 68 67 67 66 66 65 63 62 62 62 63 63 62 62 62 61 61 61 62 63 64 65 65 66 66 67 68 69
84 84 85 86 88 88 89 91 91 89 86 85 85 86 83 79 76 75 75 73 71 70 69 67 67 67 69 70 71 71 70 69 70 70 70 70 69 69 68 68 68 68 69 70 71 71 71 70 70 71 71 71 70 70 70 70 70 69 68 68 67 66 65 63 62 63 63 63 63 63 63 62 62 61 62 62 64 65 66 67 67 68 69 69 70
85 84 83 84 84 85 85 86 87 88 86 85 85 87 86 83 79 77 76 75 74 72 71 70 69 68 69 70 71 71 70 69 69 69 69 69 68 68 68 69 69 70 71 72 72 72 72 72 72 73 73 72 71 71 71 71 71 70 69 69 67 66 64 63 63 63 63 63 63 63 63 63 62 62 62 63 64 66 67 68 69 69 70 70 71
85 83 82 81 81 80 81 82 82 83 83 82 84 86 87 86 82 79 77 76 75 74 73 72 71 70 70 70 71 71 71 70 69 69 69 69 68 68 69 70 70 72 73 73 73 73 73 73 74 74 74 73 72 72 72 72 72 71 70 69 67 65 64 64 64 64 64 64 64 64 64 64 64 64 64 64 65 67 69 70 71 71 71 71 72
83 80 78 78 77 77 76 76 77 78 77 77 78 82 85 86 84 81 78 76 75 75 74 74 73 72 71 71 72 72 72 71 71 71 71 70 70 70 70 71 72 73 74 74 74 74 75 75 76 75 74 73 73 73 74 74 73 72 70 68 66 65 65 64 64 64 64 65 65 65 65 65 65 66 66 66 67 69 71 72 72 72 72 73 73
80 76 74 74 73 72 71 71 72 73 72 71 72 75 79 82 83 82 79 76 75 74 73 73 74 74 74 73 73 73 73 73 73 73 73 73 72 72 72 73 74 74 74 75 75 76 76 76 76 76 74 74 74 75 75 75 74 72 70 68 66 66 65 65 64 65 65 65 65 65 66 66 67 68 69 69 70 72 73 74 73 73 73 73 73
76 73 72 71 70 69 68 67 67 68 69 68 69 71 74 77 81 82 79 77 76 75 73 71 72 74 76 76 76 75 75 75 75 75 75 75 75 75 75 75 75 74 75 75 76 76 76 77 77 76 75 75 76 77 77 76 74 71 69 68 67 66 65 65 65 65 65 65 65 65 66 68 69 70 71 72 73 74 75 75 74 74 74 74 73
73 72 72 70 68 67 66 66 66 65 65 66 68 70 73 75 79 81 80 77 76 76 75 73 72 73 75 77 78 78 78 77 78 78 79 78 77 76 75 74 74 74 74 75 75 76 77 78 77 76 76 77 78 79 78 76 73 70 69 68 67 65 65 64 64 64 64 64 65 66 68 69 71 72 73 73 74 75 75 75 75 74 74 73 73
70 69 67 65 63 63 63 64 65 64 64 65 66 67 69 71 73 77 79 79 77 76 75 74 73 73 73 74 77 80 81 81 81 81 80 79 76 74 73 72 72 72 73 75 76 78 78 78 77 77 78 79 79 79 77 74 72 70 69 67 66 65 65 64 64 64 64 65 66 68 69 71 73 74 75 75 76 76 76 76 75 74 73 72 73
65 62 59 57 57 58 60 61 62 62 63 64 65 66 66 67 67 69 73 77 78 76 74 72 72 72 73 73 73 76 79 81 81 80 78 75 73 71 70 71 72 73 75 76 78 78 78 78 78 78 79 80 79 78 75 73 70 69 67 67 66 66 65 64 64 65 66 67 69 70 72 74 75 76 77 77 78 78 77 75 74 72 72 72 72
63 61 59 57 55 55 58 60 60 60 61 62 64 66 66 66 66 66 69 72 75 77 75 72 69 68 69 70 71 71 73 76 77 77 76 75 74 73 73 73 74 74 76 78 78 78 78 78 79 79 80 79 78 75 72 70 69 68 67 67 67 66 66 67 67 68 70 71 72 74 75 77 78 79 79 79 79 78 76 74 72 71 70 71 72
Wind_Direction
247 247 248 248 250 251 252 253 253 254 254 255 256 256 257 258 259 259 260 262 264 268 270 271 272 274 275 278 280 282 284 284 285 287 288 291 293 296 297 296 296 295 293 294 296 299 303 306 309 309 309 311 313 313 313 312 312 312 312 313 315 316 316 317 319 320 319 317 314 312 312 314 317 318 318 320 323 325 326 326 326 326 326 325 324
246 246 246 246 247 248 249 251 252 254 255 255 256 256 257 258 259 260 261 262 265 268 270 271 272 273 275 278 280 282 283 284 285 286 288 291 294 296 296 294 293 291 290 291 295 299 302 305 308 308 309 312 313 313 314 313 312 312 312 315 317 317 316 317 321 322 322 321 317 314 315 317 316 315 317 319 321 323 323 323 324 324 322 321 319
248 247 247 247 247 247 248 249 250 252 253 255 255 256 256 258 260 262 262 263 265 268 270 270 272 273 276 278 280 281 282 283 284 286 289 291 294 295 294 291 289 287 287 290 294 297 301 304 307 307 309 312 313 314 315 313 311 312 313 315 317 317 317 319 321 322 323 321 319 318 318 317 316 316 318 318 319 320 321 321 321 319 316 315 314
251 250 249 248 249 249 250 249 250 251 252 254 255 256 257 258 261 263 264 265 266 268 269 270 272 273 276 278 279 280 281 282 284 286 289 291 294 294 292 288 284 282 285 289 292 295 299 303 305 307 310 312 314 316 316 312 311 312 313 316 317 317 317 318 319 319 319 319 318 319 319 319 318 317 316 317 317 318 318 316 314 312 311 311 312
251 251 250 250 250 250 251 251 251 252 253 255 256 257 258 259 262 264 265 266 267 268 269 270 271 273 274 276 278 279 280 282 284 286 288 290 293 294 289 283 279 279 283 287 290 294 299 302 304 307 310 311 314 316 314 311 310 311 313 316 317 317 316 315 315 315 315 315 316 319 321 321 320 317 316 317 316 314 311 309 308 308 308 309 311
251 251 251 251 251 252 252 253 253 254 255 255 256 257 258 260 262 264 265 266 267 268 269 269 270 271 272 274 276 278 280 281 283 286 288 290 293 292 286 280 277 277 281 284 287 292 297 301 303 306 308 310 312 313 311 308 308 308 311 314 314 313 312 312 312 312 312 314 316 320 323 323 320 316 314 312 310 307 305 304 306 307 308 309 311
251 251 251 252 252 253 254 254 255 256 257 257 257 258 259 260 262 263 264 265 266 267 268 269 269 270 270 272 274 277 279 281 283 285 287 290 292 289 283 277 274 276 279 282 286 291 296 299 302 303 305 307 309 309 306 304 304 305 308 310 310 309 309 310 310 310 311 314 317 320 321 319 314 309 306 304 303 302 302 304 306 308 309 310 310
251 251 252 252 253 254 255 255 257 257 258 259 259 259 259 260 261 262 263 264 265 266 267 268 268 269 270 271 273 276 278 280 282 285 287 289 290 287 281 275 272 274 277 281 286 290 293 296 299 301 303 304 304 303 301 300 301 304 307 308 307 306 308 309 309 309 310 313 315 315 313 310 305 303 302 303 303 303 304 307 309 310 311 310 310
252 253 253 254 255 255 256 257 258 259 259 259 260 260 260 260 261 262 263 263 264 265 266 267 268 269 270 271 273 275 277 279 281 284 287 288 287 284 280 274 270 272 276 281 285 288 290 292 295 298 300 299 297 297 296 296 297 302 305 305 303 304 305 306 305 305 306 307 308 307 305 304 302 303 304 305 305 306 308 310 310 311 311 310 310
253 255 256 257 257 258 258 258 259 260 260 260 260 260 260 261 261 262 262 263 264 264 265 266 268 269 270 271 272 274 277 279 281 283 286 287 285 283 279 273 269 271 275 281 285 286 287 290 292 293 293 291 289 291 291 289 291 296 299 299 298 299 302 302 302 302 301 301 302 302 302 303 304 305 305 305 306 308 309 310 310 310 310 309 309
254 256 257 259 260 261 261 261 260 260 260 260 260 260 260 261 262 262 262 263 263 264 265 266 267 268 270 271 272 273 276 278 280 281 284 285 283 281 279 273 267 269 274 279 283 285 286 287 288 287 285 283 285 286 285 284 285 289 292 293 292 294 296 298 298 298 298 297 298 299 300 302 304 304 304 305 306 308 309 309 309 309 309 308 308
256 257 258 260 261 261 262 262 262 262 261 261 260 260 261 261 261 261 261 262 263 264 265 266 267 268 269 271 272 274 276 278 279 281 283 284 282 280 278 273 268 268 272 277 281 283 283 285 285 282 279 280 282 284 282 281 283 285 288 288 288 289 291 292 294 294 294 294 296 297 299 301 302 303 304 306 307 308 308 308 308 308 307 306 307
258 259 260 260 260 260 259 260 261 261 261 261 261 261 262 261 261 261 262 262 263 264 265 266 267 268 270 271 273 274 276 277 279 280 281 282 281 279 277 273 269 269 271 274 278 280 281 282 281 277 275 277 280 281 279 278 280 282 284 285 286 286 288 289 290 291 292 293 295 297 299 300 302 303 305 307 308 308 308 308 308 307 306 307 308
257 258 258 258 257 257 256 257 258 259 260 261 261 262 262 262 262 263 263 264 264 265 266 267 268 269 270 271 273 274 276 277 278 278 280 281 280 278 276 273 271 270 271 272 275 277 278 279 277 274 273 276 277 277 275 274 275 278 280 282 284 284 285 286 288 290 292 294 296 297 299 300 302 304 307 308 308 308 307 307 307 306 306 308 309
257 257 257 256 256 255 255 255 256 257 258 260 261 262 262 263 263 263 264 264 265 266 267 267 268 268 269 270 272 274 276 276 277 277 279 279 278 276 275 273 272 271 270 270 272 274 275 275 274 271 272 274 275 274 273 272 274 277 279 280 281 281 283 285 287 290 292 294 296 298 299 301 304 306 307 307 306 306 306 306 306 306 307 308 310
258 258 257 257 256 255 255 255 256 257 258 258 260 261 262 263 263 263 264 265 266 266 267 267 268 268 269 270 272 274 275 276 276 277 277 278 276 274 273 272 272 271 270 270 270 272 274 274 273 271 271 273 274 274 273 273 275 277 278 278 279 281 283 286 288 290 293 295 297 299 301 303 304 305 305 305 305 304 305 305 306 306 308 310 311
258 258 258 258 258 257 256 255 255 257 258 258 259 260 261 262 263 263 264 265 266 266 267 267 268 268 269 271 272 274 275 275 275 276 276 276 274 272 271 271 271 271 271 270 270 271 273 274 273 272 271 272 274 275 275 276 278 279 279 279 280 282 284 286 289 292 294 296 299 300 301 302 302 303 303 303 303 304 305 306 306 308 309 310 311
257 258 259 259 259 258 258 257 257 257 258 259 259 260 261 262 263 263 264 265 265 266 266 267 267 268 270 271 272 273 274 275 275 275 275 274 272 270 269 270 271 271 271 270 269 270 271 272 273 272 272 273 275 277 279 280 281 282 282 283 284 285 287 289 292 294 295 297 298 299 300 300 301 301 302 302 303 304 306 307 307 308 310 310 311
257 258 260 260 260 260 259 258 258 258 258 259 260 261 262 263 263 264 264 264 265 265 266 267 268 270 271 272 272 273 273 274 274 273 272 272 270 269 268 269 270 271 271 271 270 270 271 272 273 274 274 274 275 278 281 282 283 284 285 286 287 288 290 291 293 294 295 296 297 298 299 299 299 300 301 302 303 305 306 307 308 309 310 311 312
258 259 260 261 262 261 260 259 259 259 259 259 260 261 263 263 264 264 264 264 265 265 267 268 270 272 273 273 273 272 272 272 272 271 270 270 268 267 267 268 269 270 271 271 270 271 271 271 273 274 275 276 277 279 281 283 284 285 286 287 289 291 292 293 293 294 294 295 296 297 297 297 298 299 301 302 304 305 306 307 308 309 310 312 313
262 261 261 261 262 262 261 260 259 259 260 260 261 262 263 263 264 264 264 265 266 267 269 270 271 273 273 273 273 272 271 271 270 269 269 268 266 265 265 266 267 269 270 271 271 271 272 272 273 274 276 277 279 281 283 285 286 287 288 290 292 292 292 293 293 293 293 294 295 295 295 296 298 300 302 303 304 305 306 307 308 310 311 313 314
267 265 263 261 261 262 261 260 259 260 261 262 262 263 263 264 264 264 265 266 267 268 269 270 270 271 272 272 272 271 270 269 268 268 268 267 265 264 264 265 266 268 270 271 271 271 272 273 274 275 277 279 281 283 284 285 286 288 290 291 291 291 291 292 291 292 293 293 293 294 296 297 299 301 302 303 304 305 306 308 309 311 312 313 314
268 267 265 263 261 260 259 258 258 259 261 262 263 263 263 264 264 265 266 266 266 267 267 268 268 269 270 271 271 270 269 268 267 267 267 265 264 263 263 264 266 267 269 270 271 271 272 273 274 276 279 280 281 283 284 285 286 287 288 289 289 289 290 290 291 292 293 293 294 295 297 298 300 301 302 302 303 305 307 308 310 311 313 313 313
267 267 265 264 262 260 259 258 258 258 260 262 262 262 262 263 263 264 265 266 266 266 266 266 266 267 268 269 270 269 268 267 266 266 265 264 262 262 263 264 265 267 268 270 271 272 272 273 275 276 277 278 280 282 284 284 285 285 286 286 287 288 289 290 291 292 293 293 294 296 297 299 300 301 301 301 303 305 307 309 311 312 313 313 313
266 266 265 263 262 262 261 261 260 260 261 262 263 263 263 262 262 263 264 265 266 267 267 266 266 267 267 268 268 268 267 266 265 265 264 262 261 262 263 263 264 266 267 269 270 271 272 273 274 275 276 277 280 282 282 282 283 283 284 285 286 287 288 289 290 292 292 293 294 296 297 299 299 299 300 302 304 306 308 310 311 312 312 312 312
265 264 264 263 262 263 263 263 263 263 263 264 264 264 264 263 262 262 263 264 265 266 266 266 267 266 266 266 266 266 265 264 264 263 262 261 261 262 263 263 263 265 266 268 269 271 272 272 273 274 275 278 279 280 280 281 282 282 283 284 285 286 287 288 290 291 291 293 294 295 297 298 298 299 301 303 305 308 309 310 311 311 311 311 310
261 261 262 261 261 261 262 263 263 264 264 264 264 264 264 263 261 260 261 262 262 263 264 265 265 265 265 264 264 264 264 264 263 263 262 261 261 262 262 262 262 263 265 267 269 270 271 271 272 274 276 277 277 278 279 280 281 281 282 282 284 285 286 288 289 290 291 292 294 295 296 297 298 300 302 304 307 308 309 310 310 310 310 309 309
259 259 259 260 260 260 260 261 261 261 262 262 262 262 261 260 259 259 258 259 259 260 262 263 264 265 264 263 263 263 264 264 264 264 263 262 261 261 261 261 261 263 265 267 269 270 270 271 272 274 275 276 277 278 279 280 280 280 281 282 283 285 286 287 288 289 291 292 293 295 296 297 299 301 303 305 307 308 308 309 309 309 308 308 309
260 259 259 259 259 259 259 260 260 260 259 259 259 260 260 259 258 258 257 257 257 259 260 261 263 264 264 263 263 263 264 265 265 264 263 262 262 261 262 262 262 264 265 267 268 269 270 271 273 274 275 276 277 278 278 279 279 280 281 282 283 284 285 286 287 289 290 292 293 295 296 298 300 302 304 305 306 306 307 308 308 307 307 307 308
260 260 260 260 260 259 260 260 259 259 258 258 259 260 260 259 258 257 257 256 256 257 259 260 262 263 264 264 263 263 264 264 264 264 264 263 262 262 262 262 263 264 265 265 267 268 270 272 274 275 275 276 277 277 278 279 279 280 280 281 282 283 284 285 287 288 290 292 293 295 296 298 301 302 303 304 305 305 306 307 307 306 306 307 308
259 259 261 262 261 260 260 260 259 258 258 258 258 259 260 261 259 258 257 256 255 256 258 259 260 262 263 264 263 263 263 264 264 264 263 262 262 262 262 262 262 263 263 264 266 269 271 273 274 275 275 276 277 277 278 278 278 279 279 280 282 283 284 285 286 288 290 291 293 295 297 299 301 302 303 304 304 305 306 306 306 306 306 307 309
259 258 259 261 262 262 261 260 260 259 258 257 258 259 260 261 261 259 258 256 256 257 257 258 259 260 261 262 263 263 263 263 264 264 262 262 262 262 261 261 262 263 264 265 267 269 271 273 273 274 275 275 276 277 277 276 277 278 279 280 281 282 283 285 286 288 289 291 293 295 296 298 300 301 302 303 304 304 305 306 306 307 307 308 309
260 258 256 257 260 261 261 261 261 260 259 257 257 258 259 260 260 261 260 259 258 258 258 258 258 259 261 262 262 262 263 263 263 262 262 261 261 261 261 262 262 263 265 266 267 270 271 272 272 273 274 275 275 275 275 275 276 277 278 279 280 282 283 284 286 287 289 291 292 294 296 298 299 301 302 303 303 304 305 306 306 307 307 307 308
263 261 258 256 256 258 260 260 260 260 260 258 256 256 258 259 259 260 261 261 260 260 260 259 258 259 260 261 262 262 262 262 262 262 261 261 261 261 261 262 263 264 265 266 268 269 270 271 271 272 273 273 274 274 274 275 276 277 278 279 280 281 282 284 285 287 289 290 292 294 296 297 299 300 301 301 302 303 304 305 306 306 306 307 307
264 263 262 260 257 256 257 259 260 260 260 259 257 255 256 258 258 258 260 261 261 261 261 260 259 258 259 260 260 261 261 261 261 262 262 262 262 262 262 263 264 265 266 267 267 268 269 270 270 271 272 273 273 273 274 274 275 276 277 278 279 281 282 284 285 287 288 290 292 294 295 296 298 299 300 300 301 303 304 305 305 306 306 306 306
264 263 262 262 262 259 257 257 259 260 261 261 260 257 256 257 258 258 259 261 261 262 262 261 260 259 259 259 259 259 260 260 261 261 261 261 262 262 263 264 265 266 266 267 267 268 269 270 270 271 271 272 272 272 273 274 275 276 276 277 279 280 282 284 285 286 288 290 292 293 294 296 297 298 299 300 301 303 303 304 304 304 305 305 305
266 264 261 261 262 263 261 259 259 261 262 263 263 262 260 259 258 258 258 260 260 261 261 261 260 260 259 259 259 258 259 259 260 260 260 260 261 262 263 265 266 266 266 266 266 267 268 269 269 270 270 270 271 271 272 273 274 275 275 277 278 280 282 283 285 286 288 290 291 292 293 295 296 297 298 300 301 302 302 302 302 303 304 304 305
268 266 263 261 260 262 263 263 261 261 262 264 264 265 265 264 262 260 259 259 259 259 260 260 261 260 260 259 258 258 258 258 259 259 260 261 262 263 264 265 266 266 265 265 265 266 267 268 268 269 269 270 270 271 272 272 273 274 275 276 278 280 281 283 284 286 288 289 290 291 293 294 296 297 299 300 301 302 302 301 301 302 303 304 305
269 267 266 264 261 260 261 263 264 263 264 264 265 265 266 267 267 265 262 261 259 259 259 259 260 260 259 258 258 258 258 258 259 260 261 262 263 263 264 264 264 264 264 264 264 266 267 267 268 268 269 269 270 271 271 271 272 273 274 276 277 279 281 283 284 286 288 289 289 291 293 294 296 298 299 300 301 302 302 301 301 301 302 303 305
270 269 268 267 265 262 260 261 263 264 264 265 265 265 266 267 268 267 266 264 262 259 258 257 258 258 258 258 257 257 258 258 258 259 260 261 261 262 263 263 262 262 262 263 264 265 266 266 267 267 268 269 269 270 270 270 271 273 274 275 277 279 281 282 284 286 287 288 290 291 293 294 296 297 299 300 301 302 302 301 301 301 301 303 305
274 271 270 269 269 267 265 263 263 263 263 263 264 265 265 265 265 266 266 265 263 261 259 258 257 258 258 258 257 257 257 257 257 258 258 259 260 261 261 261 261 261 261 262 263 265 265 266 266 267 268 268 268 268 269 270 271 272 274 275 277 279 280 282 284 286 287 288 290 291 293 294 295 297 298 300 301 302 302 301 301 301 301 303 305
278 275 273 272 271 270 268 266 265 265 264 263 262 263 263 263 262 263 264 264 263 262 261 259 258 257 258 258 258 257 257 257 257 257 258 258 259 260 260 260 260 261 261 262 263 264 265 265 266 266 267 267 267 268 269 270 271 272 273 275 277 279 280 283 285 286 287 288 290 291 292 293 294 296 298 299 300 301 301 301 301 301 302 303 306
282 279 277 275 273 272 270 268 267 266 265 262 260 260 260 260 260 259 260 261 262 262 261 259 258 257 258 259 259 258 258 257 257 256 256 257 257 257 258 259 259 260 261 262 263 263 264 265 265 266 266 267 268 268 269 270 271 272 274 275 277 278 281 284 285 285 287 288 289 290 291 292 294 295 296 298 299 300 300 300 300 301 302 304 306
284 281 278 276 274 272 270 269 267 266 265 263 259 257 257 258 258 257 257 258 259 260 260 259 258 257 258 259 259 259 259 259 258 256 256 255 255 256 256 257 258 259 260 261 262 263 263 264 264 265 266 267 267 268 269 270 271 272 274 275 277 279 282 284 284 286 287 288 289 290 290 291 293 294 295 296 298 299 299 299 300 301 303 304 306
283 280 277 275 273 271 270 268 267 266 265 263 260 257 256 256 256 255 255 256 257 258 258 258 257 257 256 257 258 258 259 258 258 256 256 255 254 254 255 256 257 258 259 260 261 261 262 263 264 265 266 267 268 269 269 270 271 272 274 276 278 281 282 283 284 286 287 287 288 289 290 291 292 293 294 294 296 297 299 299 300 302 303 304 305
280 277 277 276 273 270 268 267 266 265 263 262 260 258 256 255 255 254 253 253 254 255 257 257 257 257 256 256 256 256 257 257 257 257 256 255 254 254 254 255 256 257 258 259 260 261 262 263 264 265 266 267 268 269 270 270 271 273 274 277 279 281 283 284 285 285 286 286 287 288 289 290 291 292 293 294 295 296 298 299 300 301 302 303 305
277 276 277 275 273 270 268 267 265 263 260 259 257 256 256 255 255 254 253 252 252 253 255 256 257 257 257 257 256 256 256 256 256 256 256 255 254 254 254 255 256 257 258 258 260 261 262 263 264 265 266 268 269 270 270 270 272 273 275 278 280 282 283 283 284 284 285 285 286 287 288 289 290 291 292 293 294 296 297 298 299 300 301 303 305
275 276 276 274 271 269 267 265 263 260 257 256 255 254 254 255 255 255 254 253 252 253 253 255 257 259 259 258 257 256 256 255 255 255 254 254 253 253 254 254 255 256 257 259 261 262 263 264 265 266 268 269 270 270 270 271 273 275 277 279 280 281 282 282 282 283 283 284 285 286 287 288 290 291 292 293 294 295 296 297 297 298 300 303 305
274 276 275 272 270 267 265 264 262 259 256 254 253 253 253 254 254 255 255 254 254 254 254 255 258 260 261 260 258 256 254 254 253 253 252 252 252 252 253 254 255 257 259 261 263 264 264 266 267 268 269 269 269 270 271 272 275 276 278 279 279 279 280 280 281 281 282 283 284 285 286 287 289 290 291 292 293 294 294 295 296 298 301 303 304
272 272 272 272 270 268 268 268 266 262 259 256 253 251 251 251 252 253 254 254 254 255 255 256 259 262 262 262 260 258 255 253 252 252 251 251 251 252 253 255 257 259 261 263 264 264 266 267 268 269 269 269 269 271 272 274 276 277 277 277 277 278 278 279 280 281 282 283 284 285 286 287 288 289 290 290 291 292 293 294 296 299 301 303 304
269 268 269 270 270 270 271 269 267 265 263 260 256 253 250 248 248 250 252 253 253 254 254 255 258 262 264 263 261 259 258 256 254 254 253 253 253 254 255 257 259 261 263 264 264 265 266 267 267 268 268 269 270 272 273 274 275 275 275 276 277 278 278 279 280 281 282 283 284 285 286 287 287 288 288 289 290 291 292 294 297 299 301 302 303
Height
5804 5805 5806 5807 5807 5808 5808 5808 5809 5809 5810 5810 5810 5811 5810 5810 5811 5810 5810 5810 5810 5809 5809 5808 5807 5806 5805 5804 5803 5802 5800 5799 5797 5796 5794 5793 5792 5791 5790 5788 5787 5786 5784 5782 5781 5779 5777 5775 5773 5771 5768 5765 5763 5760 5757 5754 5751 5749 5746 5743 5740 5737 5734 5732 5730 5729 5727 5724 5722 5720 5720 5719 5718 5717 5715 5713 5710 5708 5705 5702 5699 5696 5692 5689 5686
5799 5799 5800 5801 5801 5802 5802 5802 5803 5803 5804 5804 5805 5805 5805 5805 5805 5804 5805 5804 5804 5804 5803 5803 5802 5801 5800 5799 5797 5796 5795 5793 5791 5790 5789 5788 5787 5786 5785 5783 5782 5781 5779 5777 5776 5774 5772 5770 5768 5766 5763 5761 5758 5755 5753 5750 5747 5745 5742 5739 5736 5734 5731 5729 5727 5725 5723 5721 5719 5717 5716 5715 5714 5713 5711 5709 5706 5704 5701 5698 5695 5691 5688 5684 5681
5792 5793 5794 5795 5795 5795 5796 5796 5797 5797 5798 5798 5799 5799 5799 5799 5799 5799 5799 5799 5798 5798 5797 5797 5796 5795 5794 5793 5792 5791 5789 5788 5786 5785 5784 5783 5782 5781 5780 5778 5777 5775 5774 5773 5771 5770 5768 5766 5764 5761 5758 5756 5754 5751 5749 5746 5744 5741 5738 5735 5733 5731 5728 5726 5724 5722 5720 5718 5716 5714 5713 5711 5710 5708 5707 5705 5702 5700 5697 5693 5690 5686 5683 5679 5676
5786 5786 5787 5787 5788 5788 5789 5790 5790 5791 5792 5792 5793 5793 5793 5793 5793 5793 5793 5793 5793 5792 5791 5791 5790 5789 5788 5787 5786 5785 5783 5782 5780 5779 5778 5778 5777 5776 5774 5773 5772 5770 5769 5768 5767 5765 5763 5761 5758 5756 5753 5751 5749 5747 5744 5742 5740 5737 5734 5732 5730 5727 5725 5723 5721 5720 5718 5716 5714 5712 5710 5708 5706 5705 5703 5700 5698 5695 5692 5688 5685 5681 5678 5674 5671
5778 5779 5780 5780 5781 5782 5782 5783 5784 5785 5785 5786 5786 5786 5786 5787 5787 5787 5787 5787 5786 5786 5785 5785 5784 5783 5782 5781 5780 5779 5777 5776 5774 5774 5773 5772 5771 5770 5769 5768 5767 5766 5765 5763 5762 5760 5758 5756 5753 5751 5748 5746 5744 5742 5740 5737 5735 5733 5730 5727 5726 5724 5722 5720 5718 5717 5715 5713 5711 5709 5706 5704 5702 5700 5698 5696 5693 5690 5686 5683 5680 5676 5672 5669 5666
5770 5772 5773 5773 5774 5775 5776 5777 5777 5778 5778 5779 5779 5779 5780 5780 5780 5781 5781 5780 5780 5779 5779 5778 5777 5776 5776 5774 5774 5772 5771 5770 5769 5768 5767 5766 5766 5765 5763 5762 5761 5761 5760 5758 5757 5755 5753 5751 5748 5746 5743 5741 5739 5738 5735 5732 5730 5727 5725 5723 5721 5720 5719 5717 5715 5713 5712 5710 5707 5705 5703 5701 5699 5696 5693 5690 5687 5684 5681 5677 5674 5671 5668 5664 5661
5762 5764 5765 5767 5767 5768 5769 5770 5771 5771 5772 5772 5773 5773 5773 5774 5774 5774 5773 5773 5773 5772 5772 5771 5770 5769 5769 5768 5767 5766 5765 5764 5763 5762 5761 5760 5760 5759 5758 5757 5756 5755 5754 5753 5751 5749 5747 5745 5743 5741 5739 5737 5735 5733 5730 5728 5725 5722 5720 5719 5718 5717 5715 5714 5712 5710 5708 5706 5704 5701 5699 5697 5694 5691 5688 5684 5681 5678 5676 5673 5670 5667 5663 5660 5657
5754 5756 5758 5759 5760 5761 5763 5763 5764 5764 5765 5765 5766 5766 5766 5766 5766 5766 5766 5766 5766 5765 5764 5764 5763 5762 5762 5761 5761 5760 5759 5758 5757 5756 5755 5754 5754 5753 5752 5752 5751 5750 5749 5747 5745 5744 5742 5740 5738 5736 5734 5732 5730 5728 5726 5724 5721 5718 5716 5715 5714 5713 5712 5710 5708 5706 5704 5702 5699 5696 5694 5691 5688 5685 5682 5679 5677 5674 5671 5669 5666 5662 5659 5656 5652
5746 5748 5751 5752 5753 5755 5756 5756 5757 5757 5758 5758 5758 5758 5759 5758 5758 5759 5758 5758 5758 5757 5757 5756 5756 5756 5755 5755 5754 5753 5753 5752 5751 5750 5749 5748 5748 5747 5747 5746 5745 5744 5743 5741 5740 5738 5736 5734 5733 5731 5729 5727 5725 5723 5721 5719 5717 5714 5712 5711 5711 5709 5708 5706 5704 5702 5700 5697 5694 5691 5689 5686 5683 5680 5678 5675 5673 5670 5667 5664 5661 5658 5654 5651 5648
5739 5741 5744 5745 5746 5748 5749 5749 5750 5750 5750 5750 5750 5750 5751 5751 5751 5751 5751 5751 5751 5750 5750 5749 5749 5749 5748 5748 5747 5747 5747 5746 5745 5744 5743 5742 5742 5741 5741 5740 5739 5739 5737 5736 5734 5732 5731 5729 5727 5726 5724 5722 5720 5718 5716 5714 5711 5709 5707 5706 5705 5704 5703 5701 5699 5697 5695 5692 5689 5687 5684 5681 5679 5676 5674 5671 5668 5665 5662 5659 5656 5653 5649 5646 5643
5733 5736 5738 5738 5739 5741 5741 5741 5742 5743 5742 5742 5742 5742 5743 5743 5743 5743 5743 5743 5743 5742 5742 5742 5742 5741 5741 5741 5740 5740 5740 5739 5738 5737 5736 5736 5735 5735 5734 5734 5733 5732 5731 5730 5728 5726 5725 5723 5722 5720 5718 5716 5715 5713 5711 5709 5707 5704 5702 5700 5699 5698 5697 5695 5694 5692 5689 5687 5684 5681 5679 5676 5674 5671 5668 5665 5662 5660 5657 5653 5650 5647 5644 5641 5638
5727 5729 5731 5731 5732 5734 5734 5733 5734 5735 5734 5734 5735 5735 5735 5735 5735 5735 5735 5735 5734 5735 5735 5734 5734 5734 5734 5733 5733 5733 5733 5732 5731 5730 5729 5729 5728 5728 5728 5727 5727 5726 5725 5724 5722 5720 5719 5717 5716 5714 5712 5710 5709 5708 5706 5704 5702 5699 5696 5695 5693 5692 5691 5690 5688 5686 5683 5681 5678 5676 5673 5671 5668 5665 5662 5660 5657 5654 5651 5648 5645 5642 5639 5636 5633
5719 5721 5723 5723 5725 5726 5726 5725 5726 5726 5727 5726 5727 5727 5727 5727 5727 5727 5727 5727 5727 5727 5727 5727 5727 5726 5726 5726 5726 5725 5725 5724 5724 5723 5722 5722 5721 5722 5722 5721 5720 5719 5719 5717 5716 5714 5713 5712 5710 5709 5707 5705 5704 5702 5701 5699 5696 5693 5690 5689 5687 5686 5685 5683 5681 5679 5677 5675 5673 5670 5668 5665 5663 5660 5657 5654 5652 5649 5646 5642 5640 5637 5634 5630 5627
5711 5713 5714 5715 5715 5716 5717 5717 5717 5717 5718 5718 5719 5719 5719 5719 5719 5719 5719 5719 5719 5720 5720 5720 5720 5719 5719 5718 5718 5718 5717 5717 5717 5716 5715 5715 5715 5715 5715 5714 5713 5713 5712 5711 5710 5708 5707 5706 5704 5703 5701 5700 5698 5696 5695 5693 5690 5687 5684 5682 5681 5679 5678 5676 5674 5673 5671 5669 5667 5664 5662 5660 5657 5654 5652 5649 5646 5643 5640 5637 5634 5631 5628 5625 5622
5702 5704 5704 5705 5705 5707 5708 5709 5709 5708 5709 5710 5710 5711 5711 5711 5712 5711 5712 5712 5712 5712 5712 5712 5712 5711 5711 5710 5710 5710 5710 5709 5709 5709 5708 5708 5708 5708 5707 5707 5706 5706 5705 5704 5703 5702 5701 5700 5698 5697 5695 5694 5692 5691 5689 5687 5685 5682 5679 5676 5674 5672 5671 5670 5668 5666 5665 5663 5661 5659 5656 5654 5651 5649 5646 5644 5641 5638 5635 5632 5629 5626 5622 5619 5616
5693 5693 5694 5695 5696 5698 5699 5700 5699 5699 5700 5701 5702 5702 5702 5703 5703 5703 5703 5704 5704 5704 5704 5704 5704 5703 5703 5703 5703 5702 5702 5702 5702 5701 5701 5701 5701 5700 5700 5699 5699 5699 5698 5698 5697 5696 5695 5693 5692 5691 5689 5688 5686 5685 5684 5682 5680 5677 5674 5671 5668 5666 5665 5663 5662 5660 5659 5657 5655 5653 5650 5648 5646 5643 5641 5638 5635 5632 5629 5626 5623 5620 5616 5613 5610
5683 5683 5684 5687 5688 5690 5691 5691 5691 5691 5691 5692 5693 5693 5693 5693 5693 5694 5695 5695 5695 5696 5695 5695 5695 5695 5694 5694 5695 5694 5694 5694 5694 5694 5694 5694 5694 5693 5693 5692 5692 5691 5691 5691 5690 5689 5688 5687 5686 5684 5683 5682 5680 5680 5679 5677 5675 5673 5669 5666 5663 5661 5659 5657 5656 5654 5653 5651 5649 5647 5644 5642 5640 5638 5635 5632 5630 5627 5624 5621 5617 5614 5610 5607 5604
5674 5674 5676 5679 5681 5682 5682 5682 5683 5683 5683 5684 5684 5683 5684 5684 5684 5685 5686 5686 5686 5687 5687 5687 5687 5687 5686 5686 5686 5686 5686 5686 5686 5686 5686 5686 5686 5686 5685 5685 5684 5684 5684 5684 5683 5682 5682 5680 5679 5678 5676 5675 5674 5674 5673 5672 5669 5667 5664 5662 5659 5656 5653 5651 5650 5648 5646 5644 5642 5640 5638 5636 5634 5632 5629 5627 5624 5621 5618 5615 5611 5608 5605 5601 5598
5665 5666 5668 5671 5673 5674 5674 5675 5675 5675 5676 5676 5675 5675 5675 5676 5676 5676 5677 5677 5678 5678 5678 5679 5678 5678 5678 5678 5678 5678 5678 5677 5678 5678 5678 5678 5678 5678 5677 5677 5677 5676 5676 5676 5675 5675 5675 5673 5672 5671 5670 5669 5668 5667 5666 5665 5663 5661 5659 5657 5654 5651 5649 5646 5644 5642 5640 5638 5636 5634 5632 5630 5628 5626 5623 5621 5619 5616 5613 5609 5606 5602 5599 5595 5592
5657 5659 5661 5664 5665 5665 5666 5666 5667 5667 5667 5667 5667 5667 5667 5667 5667 5668 5668 5669 5669 5669 5669 5670 5669 5669 5669 5669 5669 5669 5669 5669 5669 5670 5670 5670 5670 5670 5670 5669 5669 5669 5669 5668 5668 5668 5667 5666 5665 5664 5663 5662 5661 5660 5659 5658 5656 5654 5652 5651 5649 5646 5644 5641 5638 5636 5634 5632 5630 5628 5626 5624 5622 5620 5617 5615 5613 5610 5607 5604 5601 5597 5594 5590 5586
5648 5650 5654 5656 5656 5656 5657 5657 5658 5658 5658 5658 5658 5659 5659 5659 5659 5660 5660 5660 5660 5660 5660 5660 5661 5660 5660 5660 5661 5661 5661 5661 5661 5661 5662 5662 5662 5662 5662 5661 5661 5661 5661 5661 5661 5660 5660 5659 5658 5656 5655 5655 5654 5653 5652 5651 5649 5648 5646 5645 5643 5640 5638 5635 5632 5630 5628 5626 5624 5622 5620 5618 5616 5613 5611 5609 5606 5604 5601 5598 5595 5592 5588 5584 5580
5637 5641 5644 5646 5646 5647 5648 5648 5648 5649 5649 5649 5650 5650 5651 5651 5651 5651 5652 5652 5652 5652 5652 5651 5652 5651 5651 5652 5652 5652 5652 5653 5653 5653 5654 5654 5654 5654 5653 5653 5653 5653 5653 5654 5653 5653 5652 5651 5650 5649 5648 5648 5647 5647 5645 5644 5642 5641 5639 5638 5635 5633 5631 5629 5626 5624 5622 5620 5618 5616 5614 5612 5609 5607 5605 5602 5600 5597 5594 5592 5589 5585 5582 5578 5574
5629 5632 5634 5635 5637 5637 5637 5638 5639 5640 5640 5640 5641 5642 5642 5642 5642 5642 5643 5643 5644 5644 5644 5643 5642 5642 5642 5643 5643 5644 5644 5645 5645 5645 5646 5646 5645 5645 5645 5645 5645 5645 5646 5645 5645 5645 5645 5644 5643 5642 5641 5640 5639 5638 5637 5636 5635 5634 5632 5630 5628 5625 5624 5622 5620 5618 5616 5614 5612 5609 5607 5605 5603 5601 5598 5596 5593 5590 5588 5585 5582 5579 5575 5572 5568
5621 5623 5624 5625 5626 5627 5628 5629 5630 5631 5631 5631 5632 5633 5634 5633 5633 5634 5634 5634 5635 5636 5636 5634 5634 5634 5634 5634 5635 5636 5636 5636 5637 5637 5637 5637 5637 5637 5637 5638 5638 5638 5637 5637 5637 5637 5637 5636 5635 5635 5634 5632 5631 5630 5630 5628 5627 5626 5624 5623 5621 5619 5617 5615 5613 5611 5609 5607 5605 5603 5601 5599 5597 5595 5592 5589 5587 5584 5581 5578 5575 5572 5569 5565 5562
5613 5614 5615 5615 5616 5617 5618 5620 5621 5621 5622 5622 5623 5624 5625 5625 5625 5625 5625 5625 5626 5627 5627 5626 5625 5626 5626 5627 5627 5627 5628 5628 5628 5629 5629 5629 5628 5629 5630 5630 5630 5630 5629 5629 5629 5629 5629 5628 5628 5627 5626 5625 5624 5623 5622 5620 5619 5618 5617 5616 5614 5612 5610 5608 5606 5604 5602 5600 5599 5597 5595 5593 5590 5588 5586 5583 5580 5577 5574 5571 5568 5565 5562 5559 5555
5603 5604 5605 5606 5607 5607 5609 5610 5611 5612 5612 5613 5614 5615 5615 5616 5617 5617 5617 5617 5618 5618 5617 5616 5617 5617 5618 5619 5619 5619 5619 5620 5620 5620 5620 5621 5621 5621 5622 5622 5622 5622 5622 5622 5622 5622 5621 5620 5620 5619 5618 5618 5617 5616 5614 5613 5612 5611 5610 5609 5607 5605 5603 5601 5599 5597 5595 5593 5591 5590 5588 5586 5584 5582 5579 5576 5573 5570 5567 5564 5561 5559 5556 5552 5549
5592 5594 5596 5596 5597 5598 5599 5600 5601 5602 5603 5604 5605 5606 5607 5608 5608 5609 5609 5609 5609 5608 5607 5607 5607 5608 5609 5610 5610 5611 5611 5611 5611 5612 5612 5613 5613 5614 5614 5614 5613 5614 5614 5614 5614 5614 5613 5612 5612 5612 5611 5610 5609 5608 5607 5606 5606 5604 5603 5601 5599 5598 5596 5594 5592 5590 5588 5586 5584 5583 5581 5579 5577 5575 5572 5570 5567 5564 5561 5558 5555 5552 5549 5546 5543
5583 5585 5586 5586 5587 5588 5589 5590 5592 5593 5594 5595 5596 5597 5598 5598 5599 5600 5601 5600 5600 5599 5598 5598 5599 5599 5600 5600 5601 5602 5603 5603 5603 5604 5604 5605 5605 5605 5605 5605 5606 5606 5606 5606 5606 5606 5605 5605 5605 5604 5604 5603 5602 5600 5600 5599 5598 5597 5595 5594 5593 5591 5589 5587 5585 5583 5581 5579 5577 5576 5574 5572 5570 5567 5565 5563 5561 5558 5555 5551 5548 5545 5542 5539 5536
5574 5576 5576 5576 5577 5578 5579 5581 5582 5583 5585 5586 5587 5588 5588 5588 5589 5591 5591 5591 5590 5590 5590 5590 5591 5591 5591 5592 5593 5593 5594 5595 5595 5595 5596 5597 5597 5597 5598 5598 5598 5599 5599 5599 5598 5598 5598 5598 5598 5597 5596 5595 5594 5593 5592 5591 5591 5590 5589 5587 5585 5584 5582 5580 5578 5576 5574 5572 5571 5569 5567 5565 5563 5560 5558 5556 5554 5551 5548 5545 5542 5538 5535 5532 5529
5565 5567 5567 5567 5567 5568 5569 5571 5572 5574 5576 5577 5577 5578 5578 5578 5580 5581 5582 5582 5581 5581 5581 5582 5582 5581 5582 5583 5584 5584 5585 5586 5586 5587 5588 5589 5590 5590 5590 5590 5591 5591 5591 5590 5590 5590 5591 5591 5590 5590 5589 5588 5587 5586 5585 5584 5584 5582 5581 5579 5578 5576 5574 5573 5571 5569 5567 5565 5564 5562 5560 5558 5556 5554 5552 5550 5548 5545 5542 5539 5536 5532 5529 5525 5522
5553 5557 5558 5557 5558 5559 5560 5561 5563 5564 5566 5567 5567 5567 5568 5569 5570 5572 5573 5573 5572 5572 5573 5573 5573 5572 5573 5574 5574 5575 5576 5577 5578 5579 5580 5581 5581 5582 5582 5582 5583 5583 5583 5582 5583 5583 5584 5584 5583 5582 5581 5580 5580 5579 5578 5577 5576 5574 5573 5571 5570 5568 5567 5565 5564 5562 5560 5558 5556 5555 5553 5551 5549 5547 5546 5544 5541 5538 5536 5532 5529 5526 5522 5519 5515
5541 5545 5547 5547 5548 5549 5550 5551 5552 5553 5555 5556 5557 5557 5558 5560 5561 5563 5563 5563 5563 5564 5564 5564 5563 5563 5564 5565 5565 5566 5568 5569 5569 5570 5572 5572 5573 5573 5573 5574 5574 5574 5574 5575 5575 5576 5576 5576 5575 5574 5573 5572 5572 5571 5570 5569 5568 5566 5565 5563 5562 5561 5559 5558 5556 5554 5552 5551 5549 5548 5546 5545 5543 5541 5539 5537 5534 5531 5528 5525 5522 5519 5515 5512 5509
5531 5534 5536 5536 5538 5539 5539 5541 5541 5542 5544 5545 5546 5548 5549 5550 5552 5553 5553 5554 5555 5555 5555 5555 5555 5555 5555 5556 5557 5558 5559 5560 5561 5562 5563 5563 5564 5564 5565 5565 5566 5566 5566 5567 5568 5568 5568 5568 5566 5566 5565 5565 5564 5563 5562 5561 5560 5559 5557 5556 5554 5553 5552 5550 5548 5546 5545 5544 5542 5541 5539 5538 5536 5534 5532 5530 5527 5524 5521 5518 5515 5512 5509 5506 5502
5522 5524 5525 5526 5527 5528 5529 5530 5531 5532 5533 5535 5537 5538 5539 5541 5542 5543 5544 5545 5546 5546 5547 5547 5547 5546 5547 5547 5548 5549 5550 5551 5552 5553 5554 5554 5555 5556 5556 5557 5557 5557 5558 5559 5560 5560 5560 5559 5558 5558 5557 5556 5556 5555 5554 5553 5552 5551 5549 5548 5546 5545 5543 5542 5540 5538 5537 5536 5535 5533 5532 5530 5529 5527 5525 5523 5520 5517 5514 5511 5508 5505 5502 5499 5496
5512 5515 5516 5515 5516 5517 5518 5519 5520 5521 5523 5525 5526 5528 5529 5531 5532 5534 5535 5536 5537 5537 5538 5538 5538 5538 5538 5539 5540 5540 5541 5542 5543 5544 5545 5545 5546 5547 5547 5547 5548 5549 5550 5551 5552 5551 5550 5550 5549 5549 5549 5548 5548 5547 5546 5545 5544 5542 5541 5540 5538 5537 5535 5533 5532 5531 5529 5528 5527 5526 5524 5523 5521 5520 5518 5515 5513 5510 5507 5504 5502 5498 5495 5492 5489
5501 5504 5506 5506 5506 5506 5507 5509 5510 5511 5513 5514 5516 5517 5519 5521 5522 5524 5525 5526 5527 5528 5529 5529 5529 5529 5529 5530 5531 5531 5532 5533 5534 5535 5536 5536 5537 5537 5538 5539 5540 5541 5542 5542 5542 5542 5541 5541 5541 5541 5541 5540 5539 5538 5537 5537 5535 5534 5533 5531 5529 5528 5526 5525 5524 5522 5521 5521 5519 5518 5516 5515 5514 5512 5510 5508 5505 5503 5500 5498 5495 5491 5488 5485 5482
5488 5492 5495 5496 5496 5496 5497 5498 5499 5501 5502 5503 5505 5507 5508 5509 5511 5513 5514 5516 5517 5518 5519 5520 5520 5521 5521 5522 5522 5521 5522 5524 5525 5525 5526 5527 5527 5528 5529 5530 5531 5532 5533 5533 5533 5532 5532 5532 5532 5532 5532 5531 5530 5529 5529 5528 5527 5525 5524 5523 5521 5519 5518 5516 5515 5514 5513 5512 5511 5509 5508 5507 5506 5504 5502 5500 5498 5495 5493 5490 5487 5484 5481 5478 5475
5477 5479 5482 5484 5485 5487 5488 5488 5489 5490 5491 5493 5495 5496 5497 5498 5500 5501 5503 5505 5506 5507 5509 5510 5511 5512 5513 5513 5512 5512 5512 5513 5514 5516 5517 5518 5519 5520 5521 5521 5522 5523 5523 5523 5523 5522 5523 5523 5523 5523 5523 5522 5521 5521 5520 5519 5518 5517 5516 5514 5513 5511 5509 5508 5507 5506 5505 5504 5502 5501 5500 5498 5497 5495 5494 5492 5490 5487 5485 5482 5480 5476 5473 5470 5467
5465 5467 5468 5470 5472 5475 5477 5478 5478 5479 5480 5482 5483 5485 5486 5487 5489 5490 5492 5493 5495 5496 5498 5500 5501 5502 5503 5502 5502 5502 5503 5504 5505 5507 5508 5509 5510 5510 5511 5511 5512 5513 5513 5513 5513 5513 5513 5514 5514 5514 5513 5512 5512 5511 5511 5510 5508 5508 5507 5506 5504 5503 5501 5500 5499 5498 5497 5495 5494 5492 5491 5490 5488 5487 5485 5484 5482 5479 5477 5474 5472 5469 5466 5463 5459
5454 5455 5456 5457 5459 5461 5463 5465 5467 5469 5469 5470 5471 5473 5475 5477 5478 5480 5481 5482 5484 5486 5487 5489 5490 5491 5491 5492 5492 5493 5493 5494 5496 5497 5498 5498 5499 5500 5500 5501 5502 5502 5502 5502 5503 5503 5504 5504 5504 5504 5503 5503 5502 5501 5500 5500 5499 5499 5498 5497 5495 5494 5493 5492 5491 5490 5489 5487 5485 5484 5482 5481 5480 5478 5477 5475 5473 5471 5469 5466 5463 5461 5458 5455 5451
5442 5443 5444 5445 5445 5447 5449 5451 5454 5456 5458 5458 5459 5461 5464 5467 5468 5468 5470 5471 5473 5475 5476 5478 5480 5480 5481 5481 5482 5482 5483 5484 5485 5486 5486 5487 5488 5489 5490 5491 5491 5492 5492 5492 5493 5494 5494 5494 5494 5494 5494 5493 5492 5491 5491 5491 5491 5490 5489 5487 5486 5485 5484 5484 5483 5482 5480 5479 5477 5476 5474 5473 5471 5470 5468 5467 5465 5462 5460 5458 5455 5452 5450 5446 5443
5429 5430 5432 5432 5433 5434 5435 5438 5440 5442 5444 5446 5448 5450 5452 5454 5456 5457 5459 5461 5462 5464 5466 5467 5469 5470 5470 5471 5471 5471 5473 5474 5474 5475 5476 5477 5478 5479 5479 5480 5481 5482 5481 5482 5484 5484 5484 5485 5484 5484 5484 5483 5482 5482 5482 5482 5481 5480 5479 5479 5478 5477 5476 5476 5475 5474 5472 5470 5469 5467 5466 5464 5463 5461 5460 5458 5456 5454 5452 5449 5447 5444 5441 5438 5434
5417 5418 5419 5419 5420 5421 5422 5423 5425 5427 5430 5433 5436 5437 5439 5442 5444 5446 5448 5449 5451 5453 5455 5456 5458 5459 5460 5460 5460 5461 5463 5464 5464 5465 5466 5466 5468 5468 5469 5470 5471 5471 5471 5472 5474 5474 5474 5474 5474 5473 5473 5473 5473 5473 5473 5472 5471 5471 5470 5469 5469 5468 5468 5468 5466 5465 5463 5462 5460 5459 5457 5455 5454 5452 5451 5449 5447 5445 5443 5440 5438 5435 5432 5428 5425
5405 5405 5405 5406 5407 5408 5409 5410 5411 5413 5415 5418 5421 5424 5427 5429 5431 5434 5436 5438 5440 5442 5443 5445 5447 5448 5448 5448 5449 5451 5453 5454 5455 5455 5455 5456 5457 5458 5459 5459 5460 5460 5460 5462 5463 5464 5464 5463 5463 5463 5463 5463 5464 5464 5463 5462 5462 5461 5461 5460 5460 5460 5460 5459 5457 5456 5455 5453 5451 5450 5448 5446 5445 5443 5441 5440 5437 5435 5433 5431 5428 5425 5422 5419 5415
5394 5393 5393 5393 5393 5394 5395 5397 5398 5399 5402 5404 5407 5411 5414 5416 5418 5421 5424 5426 5429 5431 5432 5433 5435 5436 5437 5437 5439 5440 5442 5444 5444 5444 5445 5446 5447 5448 5448 5448 5449 5449 5450 5451 5452 5453 5453 5453 5453 5453 5453 5454 5454 5454 5453 5453 5452 5452 5451 5451 5452 5451 5451 5450 5448 5447 5445 5444 5442 5440 5439 5437 5435 5434 5432 5430 5428 5425 5423 5420 5418 5415 5412 5409 5406
5383 5382 5381 5381 5380 5381 5383 5383 5384 5386 5388 5391 5394 5398 5401 5403 5405 5409 5412 5415 5417 5419 5421 5422 5423 5425 5426 5426 5428 5429 5431 5433 5433 5434 5435 5436 5437 5437 5437 5437 5438 5439 5439 5440 5441 5442 5442 5442 5443 5443 5444 5444 5445 5444 5443 5443 5443 5442 5443 5443 5443 5442 5441 5440 5439 5438 5436 5434 5433 5431 5429 5427 5426 5424 5422 5420 5418 5415 5413 5411 5408 5406 5403 5400 5397
5372 5371 5370 5369 5369 5369 5370 5371 5372 5373 5375 5378 5382 5386 5389 5391 5393 5396 5399 5403 5405 5407 5409 5411 5412 5413 5414 5415 5416 5418 5420 5421 5422 5423 5424 5425 5425 5425 5425 5426 5427 5428 5429 5429 5430 5431 5431 5432 5433 5433 5434 5435 5435 5434 5433 5433 5433 5434 5434 5434 5434 5433 5432 5431 5430 5428 5427 5425 5423 5422 5420 5418 5416 5414 5413 5411 5409 5406 5404 5401 5399 5397 5394 5391 5388
5361 5360 5359 5358 5358 5358 5359 5359 5360 5361 5362 5365 5368 5372 5375 5379 5381 5383 5387 5390 5392 5394 5397 5399 5401 5402 5403 5404 5405 5407 5408 5410 5411 5412 5413 5413 5413 5413 5414 5415 5417 5417 5418 5419 5420 5421 5422 5423 5423 5424 5425 5425 5424 5424 5423 5424 5425 5426 5426 5425 5424 5423 5422 5421 5420 5418 5417 5415 5414 5412 5411 5409 5407 5405 5403 5402 5399 5397 5395 5392 5390 5388 5385 5382 5379
5351 5350 5349 5348 5347 5347 5348 5348 5348 5349 5350 5352 5355 5358 5362 5365 5368 5371 5374 5377 5380 5382 5385 5387 5389 5390 5391 5392 5394 5395 5396 5397 5398 5399 5400 5401 5402 5402 5403 5405 5406 5407 5409 5410 5411 5412 5412 5413 5413 5414 5414 5414 5414 5414 5414 5415 5416 5417 5416 5416 5415 5414 5413 5411 5410 5408 5407 5406 5404 5402 5401 5399 5398 5396 5394 5392 5390 5388 5386 5383 5381 5378 5376 5373 5370
5341 5340 5339 5339 5339 5338 5338 5338 5338 5339 5340 5341 5344 5347 5349 5352 5355 5359 5362 5365 5368 5371 5374 5376 5378 5379 5379 5381 5382 5383 5384 5385 5386 5387 5389 5390 5391 5392 5394 5395 5397 5398 5399 5399 5400 5401 5402 5402 5403 5403 5403 5403 5404 5405 5405 5406 5407 5407 5406 5406 5405 5404 5402 5401 5400 5398 5397 5396 5394 5393 5391 5389 5388 5386 5384 5382 5380 5378 5376 5374 5372 5369 5366 5364 5361
5331 5331 5330 5330 5330 5330 5330 5330 5329 5330 5330 5332 5333 5335 5337 5340 5343 5346 5349 5353 5356 5359 5362 5364 5366 5367 5368 5369 5371 5372 5373 5374 5375 5377 5378 5380 5381 5382 5383 5385 5386 5387 5388 5388 5389 5390 5391 5391 5392 5392 5393 5393 5394 5395 5396 5396 5396 5396 5396 5395 5394 5393 5392 5391 5389 5388 5387 5386 5384 5383 5381 5380 5378 5376 5374 5372 5370 5368 5366 5364 5362 5360 5357 5354 5351